Home > Time Zones > World Clock > Weather > Japan > Tokyo > Past weeks

Flag for Japan Weather past 2 weeks in Tokyo, Japan

Now
84 °F

Warm.


Feels Like: 94 °F
Forecast: 79 / 93 °F
Wind: 5 mph from South

Location: Tokyo

Current Time: Aug 22, 2014 at 1:07:33 AM

Latest Report: Aug 22, 2014 at 12:00 AM


Visibility: N/A

Pressure: 29.89 "Hg

Humidity: 78%

Dew point: 77 °F

Location of TokyoLocation

Historic Weather in Tokyo — Graph

°F

Tokyo temperature yesterday

Maximum temperature yesterday: 92 °F (at 1:00 PM)
Minimum temperature yesterday: 82 °F (at 6:00 AM)
Average temperature yesterday: 87 °F

Past Weeks' High & Low Weather Summary

 TemperatureHumidityPressure
High93 °F (Aug 20, 2:00 PM)95% (Aug 10, 5:00 AM)30.00 "Hg (Aug 10, 5:00 AM)
Low72 °F (Aug 12, 11:00 PM)53% (Aug 7, 2:00 PM)29.41 "Hg (Aug 10, 7:00 PM)
Average83 °F75%29.79 "Hg
* Reported Aug 6 11:00 PM — Aug 21 11:00 PM, Tokyo, Weather by CustomWeather, © 2014

Note: Actual official high and low records may vary slightly from our data, if they occured in-between our weather recording intervals... More about our weather records

Advertising

Tokyo weather history for previous 24 hours

 ConditionsComfort  
Time TempWeatherWind HumidityBarometerVisibility
11:00 PM
Aug 21
86 °FWarm.6 mph76%29.90 "HgN/A
10:00 PM86 °FWarm.5 mph75%29.89 "HgN/A
9:00 PM87 °FPassing clouds.3 mph71%29.89 "Hg19 mi
8:00 PM87 °FWarm.3 mph70%29.87 "HgN/A
7:00 PM88 °FHot.5 mph71%29.86 "HgN/A
6:00 PM89 °FPassing clouds.8 mph69%29.84 "Hg12 mi
5:00 PM89 °FHot.8 mph66%29.84 "HgN/A
4:00 PM90 °FHot.9 mph65%29.83 "HgN/A
3:00 PM91 °FScattered clouds.10 mph63%29.83 "Hg12 mi
2:00 PM92 °FHot.13 mph61%29.84 "HgN/A
1:00 PM92 °FHot.9 mph59%29.85 "HgN/A
12:00 PM91 °FOvercast.9 mph61%29.87 "Hg9 mi
11:00 AM91 °FHot.5 mph61%29.88 "HgN/A
10:00 AM90 °FHot.3 mph58%29.90 "HgN/A
9:00 AM88 °FOvercast.6 mph67%29.91 "Hg12 mi
8:00 AM85 °FWarm.3 mph74%29.92 "HgN/A
7:00 AM83 °FWarm.2 mph76%29.92 "HgN/A
6:00 AM82 °FOvercast.3 mph78%29.91 "Hg12 mi
5:00 AM82 °FWarm.3 mph77%29.91 "HgN/A
4:00 AM82 °FWarm.1 mph81%29.90 "HgN/A
3:00 AM83 °FOvercast.3 mph80%29.90 "Hg12 mi
2:00 AM83 °FWarm.3 mph80%29.89 "HgN/A
1:00 AM84 °FWarm.2 mph78%29.90 "HgN/A
Weather by CustomWeather, © 2014

See weather overviewHow to use our weather pages